Tracking 29892 objects as of 21-Nov-2024
HD Live streaming from Space Station
objects crossing your sky now

BLOCK DM-SL R/B

Track BLOCK DM-SL R/B now!


NORAD ID: 32952
Int'l Code: 2008-024B
Perigee: 2,476.8 km
Apogee: 35,556.4 km
Inclination: 0.5 °
Period: 671.0 minutes
Semi major axis: 25387 km
RCS: 20.5459 m2 (large)
Launch date: May 21, 2008
Source: Sea Launch (SEAL)
Launch site: SEA LAUNCH (SEAL)

Note: This is a ROCKET BODY
Your satellite tracking list
Your tracking list is empty




NASA's NSSDC Master Catalog

Two Line Element Set (TLE):
1 32952U 08024B   24325.40822246 -.00000131  00000-0  00000-0 0  9995
2 32952   0.4545  82.6321 6514923 269.3842   1.4049  2.14620159129344
Source of the keplerian elements: AFSPC